SWR40L LSZH-LEVC

Flight info

Callsign SWR40L
Flight time 1h 53m
Altitude 35000
Route VEBIT1T VEBIT T50 ROTOS Z669 ULMES DCT VADAR DCT GEVEA DCT INCUS DCT BALSI DCT RETNO DCT TUPOX DCT MTG DCT DIVKO DCT VATIR DCT PIVUS DCT SULID DCT SISMO DCT AKAMU DCT EPAMA DCT IXUPA N733 ARGOR ARGOR3D
Aircraft A320/M-SDE3FGHIRWY/LB1

Departure

Time 2026-05-04 11:24
Airport Zürich Airport (LSZH)

Arrival

Time 2026-05-04 13:18
Airport Valencia Airport (LEVC)
Time Latitude Longitude Altitude Speed Heading
2026-05-04 10:57 47.46051 8.55471 1399 ft 0 kts
2026-05-04 11:16 47.45968 8.55496 1410 ft 4 kts 288°
2026-05-04 11:16 47.45962 8.55535 1400 ft 4 kts 276°
2026-05-04 11:16 47.45960 8.55570 1407 ft 4 kts 276°
2026-05-04 11:17 47.45957 8.55610 1406 ft 4 kts 276°
2026-05-04 11:17 47.45956 8.55624 1408 ft 0 kts 276°
2026-05-04 11:19 47.45988 8.55137 1394 ft 24 kts 274°
2026-05-04 11:19 47.46032 8.54961 1386 ft 17 kts 306°
2026-05-04 11:19 47.46133 8.54863 1387 ft 19 kts 334°
2026-05-04 11:19 47.46264 8.54770 1385 ft 23 kts 334°
2026-05-04 11:20 47.46425 8.54660 1385 ft 27 kts 335°
2026-05-04 11:20 47.46598 8.54542 1386 ft 29 kts 334°
2026-05-04 11:20 47.46791 8.54412 1383 ft 32 kts 338°
2026-05-04 11:20 47.46993 8.54284 1382 ft 31 kts 334°
2026-05-04 11:22 47.47469 8.53665 1395 ft 0 kts 155°
2026-05-04 11:22 47.47459 8.53672 1402 ft 17 kts 155°
2026-05-04 11:23 47.47095 8.53925 1382 ft 93 kts 155°
2026-05-04 11:23 47.46326 8.54455 1386 ft 147 kts 155°
2026-05-04 11:24 47.44710 8.61753 4292 ft 222 kts
2026-05-04 11:25 47.46217 8.61254 5010 ft 232 kts 326°
2026-05-04 11:25 47.47202 8.59414 5667 ft 238 kts 285°
2026-05-04 11:25 47.47352 8.57015 6439 ft 235 kts 263°
2026-05-04 11:26 47.46158 8.52652 7719 ft 244 kts 230°
2026-05-04 11:27 47.39009 8.34758 11017 ft 346 kts 240°
2026-05-04 11:28 47.37827 8.31582 11620 ft 353 kts 241°
2026-05-04 11:28 47.36677 8.28367 12318 ft 356 kts 242°
2026-05-04 11:28 47.35535 8.25111 13034 ft 359 kts 242°
2026-05-04 11:28 47.34390 8.21827 13711 ft 361 kts 242°
2026-05-04 11:29 47.33232 8.18517 14311 ft 365 kts 242°
2026-05-04 11:29 47.32069 8.15224 14872 ft 368 kts 242°
2026-05-04 11:29 47.30862 8.11828 15467 ft 371 kts 241°
2026-05-04 11:29 47.29669 8.08484 16021 ft 375 kts 241°
2026-05-04 11:31 47.21985 7.83166 19717 ft 398 kts 245°
2026-05-04 11:33 47.11597 7.58831 22738 ft 411 kts 230°
2026-05-04 11:33 47.09819 7.55539 23132 ft 413 kts 230°
2026-05-04 11:33 47.08028 7.52225 23518 ft 415 kts 230°
2026-05-04 11:34 47.06226 7.48908 23844 ft 417 kts 230°
2026-05-04 11:34 47.04416 7.45580 24168 ft 418 kts 230°
2026-05-04 11:34 47.02599 7.42241 24497 ft 420 kts 230°
2026-05-04 11:34 47.00798 7.38935 24821 ft 421 kts 230°
2026-05-04 11:35 46.98938 7.35536 25126 ft 423 kts 229°
2026-05-04 11:35 46.97098 7.32178 25420 ft 424 kts 230°
2026-05-04 11:35 46.95250 7.28807 25717 ft 425 kts 229°
2026-05-04 11:35 46.93418 7.25467 26005 ft 427 kts 229°
2026-05-04 11:36 46.91557 7.22069 26302 ft 428 kts 229°
2026-05-04 11:36 46.89697 7.18674 26598 ft 429 kts 229°
2026-05-04 11:36 46.87826 7.15269 26870 ft 430 kts 229°
2026-05-04 11:36 46.85945 7.11851 27118 ft 431 kts 229°
2026-05-04 11:37 46.84062 7.08430 27355 ft 432 kts 229°
2026-05-04 11:37 46.82177 7.05010 27587 ft 433 kts 229°
2026-05-04 11:37 46.80291 7.01589 27904 ft 432 kts 229°
2026-05-04 11:37 46.78405 6.98174 28230 ft 431 kts 229°
2026-05-04 11:38 46.76526 6.94781 28568 ft 429 kts 229°
2026-05-04 11:38 46.74650 6.91405 28898 ft 428 kts 229°
2026-05-04 11:38 46.72773 6.88032 29216 ft 427 kts 228°
2026-05-04 11:38 46.70905 6.84671 29541 ft 426 kts 228°
2026-05-04 11:39 46.69042 6.81319 29885 ft 425 kts 228°
2026-05-04 11:39 46.67185 6.77981 30216 ft 424 kts 228°
2026-05-04 11:40 46.55402 6.59289 31953 ft 415 kts 224°
2026-05-04 11:41 46.53410 6.56257 32265 ft 414 kts 225°
2026-05-04 11:41 46.51430 6.53214 32580 ft 413 kts 225°
2026-05-04 11:41 46.49463 6.50174 32908 ft 412 kts 225°
2026-05-04 11:41 46.47508 6.47146 33217 ft 411 kts 226°
2026-05-04 11:42 46.45556 6.44123 33523 ft 409 kts 226°
2026-05-04 11:42 46.43610 6.41117 33834 ft 408 kts 225°
2026-05-04 11:42 46.41665 6.38125 34148 ft 406 kts 225°
2026-05-04 11:42 46.39730 6.35154 34408 ft 405 kts 225°
2026-05-04 11:43 46.37795 6.32189 34627 ft 405 kts 225°
2026-05-04 11:43 46.35855 6.29218 34825 ft 406 kts 225°
2026-05-04 11:43 46.33914 6.26247 35010 ft 406 kts 226°
2026-05-04 11:44 46.30031 6.20308 35084 ft 411 kts 226°
2026-05-04 11:44 46.25696 6.14966 35084 ft 411 kts 210°
2026-05-04 11:45 46.20346 6.12099 35078 ft 415 kts 192°
2026-05-04 11:45 46.14587 6.10830 35084 ft 416 kts 191°
2026-05-04 11:46 46.08869 6.09556 35083 ft 416 kts 191°
2026-05-04 11:46 46.03186 6.08286 35089 ft 416 kts 191°
2026-05-04 11:47 45.97463 6.07016 35078 ft 416 kts 191°
2026-05-04 11:47 45.91742 6.05760 35082 ft 416 kts 191°
2026-05-04 11:48 45.86014 6.04502 35083 ft 417 kts 191°
2026-05-04 11:48 45.80274 6.03232 35078 ft 417 kts 191°
2026-05-04 11:49 45.74541 6.01963 35078 ft 417 kts 191°
2026-05-04 11:49 45.69776 6.00913 35087 ft 417 kts 191°
2026-05-04 11:50 45.64045 5.99654 35088 ft 417 kts 191°
2026-05-04 11:50 45.58307 5.98395 35085 ft 417 kts 192°
2026-05-04 11:51 45.52571 5.97145 35083 ft 417 kts 192°
2026-05-04 11:51 45.46843 5.95868 35076 ft 416 kts 193°
2026-05-04 11:52 45.41172 5.94206 35061 ft 416 kts 196°
2026-05-04 11:52 45.35546 5.92315 35056 ft 415 kts 196°
2026-05-04 11:53 45.29911 5.90478 35052 ft 415 kts 195°
2026-05-04 11:53 45.24257 5.88730 35051 ft 416 kts 195°
2026-05-04 11:55 45.01681 5.81764 35033 ft 416 kts 195°
2026-05-04 11:56 44.96029 5.80016 35040 ft 416 kts 196°
2026-05-04 11:56 44.90379 5.78283 35046 ft 416 kts 195°
2026-05-04 11:57 44.84723 5.76556 35039 ft 416 kts 196°
2026-05-04 11:57 44.79072 5.74828 35053 ft 415 kts 196°
2026-05-04 11:58 44.73422 5.73102 35059 ft 415 kts 196°
2026-05-04 11:58 44.67780 5.71378 35067 ft 415 kts 196°
2026-05-04 11:59 44.62142 5.69662 35093 ft 415 kts 196°
2026-05-04 11:59 44.56504 5.67947 35087 ft 414 kts 196°
2026-05-04 12:00 44.50869 5.66239 35084 ft 414 kts 196°
2026-05-04 12:00 44.45244 5.64534 35082 ft 414 kts 196°
2026-05-04 12:01 44.39648 5.62848 35074 ft 413 kts 196°
2026-05-04 12:02 44.21033 5.53057 35070 ft 408 kts 205°
2026-05-04 12:03 44.15749 5.50169 35076 ft 408 kts 205°
2026-05-04 12:03 44.10466 5.47287 35063 ft 408 kts 205°
2026-05-04 12:04 44.05182 5.44425 35055 ft 407 kts 205°
2026-05-04 12:04 43.99905 5.41570 35065 ft 407 kts 205°
2026-05-04 12:05 43.94631 5.38716 35065 ft 407 kts 205°
2026-05-04 12:05 43.89352 5.35864 35052 ft 407 kts 205°
2026-05-04 12:06 43.84083 5.33017 35064 ft 406 kts 205°
2026-05-04 12:06 43.78858 5.30199 35057 ft 405 kts 205°
2026-05-04 12:07 43.73610 5.27373 35047 ft 404 kts 205°
2026-05-04 12:07 43.68369 5.24559 35042 ft 404 kts 205°
2026-05-04 12:08 43.63131 5.21750 35050 ft 403 kts 205°
2026-05-04 12:08 43.57905 5.18950 35042 ft 403 kts 205°
2026-05-04 12:09 43.52676 5.16158 35043 ft 403 kts 205°
2026-05-04 12:09 43.47450 5.13382 35033 ft 402 kts 205°
2026-05-04 12:10 43.42225 5.10603 35039 ft 402 kts 205°
2026-05-04 12:10 43.37202 5.07350 35038 ft 396 kts 217°
2026-05-04 12:11 43.32682 5.03052 35024 ft 395 kts 217°
2026-05-04 12:11 43.28180 4.98816 35005 ft 395 kts 218°
2026-05-04 12:12 43.23647 4.94569 35026 ft 395 kts 217°
2026-05-04 12:12 43.19111 4.90316 35020 ft 395 kts 217°
2026-05-04 12:14 43.00658 4.73922 34999 ft 397 kts 213°
2026-05-04 12:15 42.95826 4.70257 34995 ft 397 kts 213°
2026-05-04 12:15 42.90985 4.66604 34989 ft 398 kts 213°
2026-05-04 12:16 42.86141 4.62949 34993 ft 397 kts 213°
2026-05-04 12:16 42.81315 4.59295 34997 ft 397 kts 213°
2026-05-04 12:17 42.76521 4.55681 35001 ft 397 kts 212°
2026-05-04 12:17 42.71691 4.52056 34992 ft 397 kts 212°
2026-05-04 12:18 42.66855 4.48433 34989 ft 397 kts 212°
2026-05-04 12:18 42.62013 4.44803 34989 ft 397 kts 212°
2026-05-04 12:19 42.57173 4.41177 34977 ft 397 kts 212°
2026-05-04 12:19 42.52325 4.37557 34956 ft 397 kts 212°
2026-05-04 12:20 42.47484 4.33955 34977 ft 396 kts 212°
2026-05-04 12:20 42.42653 4.30367 34984 ft 395 kts 212°
2026-05-04 12:21 42.37835 4.26796 34979 ft 395 kts 212°
2026-05-04 12:21 42.33050 4.23249 34979 ft 395 kts 212°
2026-05-04 12:22 42.28241 4.19689 34972 ft 394 kts 213°
2026-05-04 12:22 42.23438 4.16137 34996 ft 393 kts 212°
2026-05-04 12:23 42.18636 4.12603 34994 ft 393 kts 212°
2026-05-04 12:23 42.13838 4.09080 34988 ft 392 kts 212°
2026-05-04 12:24 42.09051 4.05556 34970 ft 391 kts 212°
2026-05-04 12:24 42.04269 4.02047 34979 ft 391 kts 212°
2026-05-04 12:25 41.99502 3.98556 34982 ft 390 kts 212°
2026-05-04 12:25 41.94728 3.95073 34972 ft 390 kts 212°
2026-05-04 12:26 41.89965 3.91661 34960 ft 390 kts 211°
2026-05-04 12:26 41.85108 3.88398 34971 ft 390 kts 211°
2026-05-04 12:27 41.80236 3.85174 34971 ft 390 kts 211°
2026-05-04 12:27 41.75379 3.81936 34975 ft 390 kts 211°
2026-05-04 12:28 41.70528 3.78691 34979 ft 389 kts 211°
2026-05-04 12:28 41.65694 3.75449 34980 ft 388 kts 211°
2026-05-04 12:29 41.60860 3.72222 34975 ft 388 kts 211°
2026-05-04 12:29 41.56026 3.69007 34974 ft 388 kts 210°
2026-05-04 12:30 41.51229 3.65821 34977 ft 387 kts 211°
2026-05-04 12:30 41.46410 3.62615 34961 ft 387 kts 210°
2026-05-04 12:31 41.41588 3.59413 34966 ft 387 kts 210°
2026-05-04 12:31 41.36769 3.56223 34968 ft 387 kts 210°
2026-05-04 12:32 41.29544 3.51458 34970 ft 387 kts 210°
2026-05-04 12:33 41.24720 3.48276 34951 ft 387 kts 210°
2026-05-04 12:33 41.19901 3.45103 34956 ft 386 kts 210°
2026-05-04 12:34 41.14991 3.42158 34962 ft 389 kts 206°
2026-05-04 12:34 41.09956 3.39613 34961 ft 390 kts 205°
2026-05-04 12:35 41.04874 3.37106 34956 ft 389 kts 205°
2026-05-04 12:35 40.99822 3.34539 34962 ft 389 kts 206°
2026-05-04 12:36 40.94785 3.31938 34965 ft 388 kts 206°
2026-05-04 12:36 40.89755 3.29344 34965 ft 388 kts 206°
2026-05-04 12:37 40.84721 3.26754 34946 ft 388 kts 206°
2026-05-04 12:37 40.79692 3.24173 34951 ft 388 kts 206°
2026-05-04 12:38 40.74661 3.21594 34956 ft 388 kts 206°
2026-05-04 12:38 40.70476 3.19449 34957 ft 388 kts 206°
2026-05-04 12:39 40.65516 3.16674 34967 ft 384 kts 215°
2026-05-04 12:39 40.63428 3.14534 34968 ft 380 kts 226°
2026-05-04 12:39 40.61356 3.10850 34968 ft 380 kts 241°
2026-05-04 12:39 40.60389 3.07598 34965 ft 384 kts 252°
2026-05-04 12:40 40.60059 3.05257 34972 ft 388 kts 258°
2026-05-04 12:40 40.59409 2.98192 34965 ft 389 kts 258°
2026-05-04 12:41 40.58757 2.91161 34961 ft 390 kts 258°
2026-05-04 12:41 40.58102 2.84070 34962 ft 391 kts 258°
2026-05-04 12:42 40.57429 2.76971 34969 ft 391 kts 258°
2026-05-04 12:42 40.56751 2.69882 34970 ft 391 kts 258°
2026-05-04 12:43 40.56068 2.62788 34988 ft 391 kts 258°
2026-05-04 12:43 40.55391 2.55703 34981 ft 390 kts 258°
2026-05-04 12:44 40.54713 2.48663 34977 ft 390 kts 258°
2026-05-04 12:44 40.54027 2.41591 34970 ft 390 kts 258°
2026-05-04 12:45 40.53334 2.34529 34968 ft 389 kts 257°
2026-05-04 12:45 40.52635 2.27467 34993 ft 389 kts 257°
2026-05-04 12:46 40.51931 2.20407 34973 ft 390 kts 257°
2026-05-04 12:46 40.51227 2.13346 34965 ft 390 kts 257°
2026-05-04 12:47 40.50519 2.06272 34964 ft 390 kts 257°
2026-05-04 12:47 40.49803 1.99200 34962 ft 390 kts 257°
2026-05-04 12:48 40.49081 1.92127 34965 ft 390 kts 257°
2026-05-04 12:48 40.48354 1.85051 34989 ft 391 kts 257°
2026-05-04 12:49 40.47621 1.77967 34977 ft 391 kts 257°
2026-05-04 12:49 40.46890 1.70923 34975 ft 392 kts 257°
2026-05-04 12:50 40.46155 1.63832 34960 ft 392 kts 257°
2026-05-04 12:50 40.45415 1.56735 34966 ft 392 kts 257°
2026-05-04 12:51 40.44663 1.49644 34988 ft 392 kts 257°
2026-05-04 12:51 40.43904 1.42551 34980 ft 393 kts 257°
2026-05-04 12:52 40.43148 1.35447 34972 ft 393 kts 257°
2026-05-04 12:52 40.42391 1.28351 34971 ft 393 kts 257°
2026-05-04 12:53 40.41621 1.21257 34965 ft 393 kts 256°
2026-05-04 12:53 40.40850 1.14215 34990 ft 392 kts 256°
2026-05-04 12:54 40.40072 1.07124 34975 ft 393 kts 256°
2026-05-04 12:54 40.39294 1.00016 34961 ft 393 kts 256°
2026-05-04 12:55 40.38508 0.92917 34958 ft 393 kts 256°
2026-05-04 12:55 40.37712 0.85816 34956 ft 394 kts 256°
2026-05-04 12:56 40.36919 0.78710 34956 ft 394 kts 256°
2026-05-04 12:56 40.36119 0.71583 34968 ft 395 kts 257°
2026-05-04 12:57 40.35309 0.64432 34957 ft 396 kts 257°
2026-05-04 12:57 40.34493 0.57271 34953 ft 397 kts 257°
2026-05-04 12:58 40.33675 0.50140 34953 ft 397 kts 257°
2026-05-04 12:58 40.32850 0.42973 34955 ft 397 kts 256°
2026-05-04 12:59 40.32021 0.35811 34981 ft 398 kts 257°
2026-05-04 12:59 40.31188 0.28646 34958 ft 398 kts 256°
2026-05-04 12:59 40.30767 0.25055 34716 ft 398 kts 256°
2026-05-04 13:00 40.30347 0.21473 34476 ft 398 kts 256°
2026-05-04 13:00 40.29925 0.17880 33819 ft 399 kts 256°
2026-05-04 13:00 40.29499 0.14282 32962 ft 399 kts 256°
2026-05-04 13:00 40.29074 0.10693 32143 ft 399 kts 256°
2026-05-04 13:01 40.28649 0.07092 31254 ft 400 kts 257°
2026-05-04 13:01 40.28222 0.03487 30403 ft 401 kts 257°
2026-05-04 13:01 40.27794 -0.00084 29402 ft 403 kts 257°
2026-05-04 13:01 40.27356 -0.03726 28391 ft 404 kts 257°
2026-05-04 13:02 40.26917 -0.07361 27414 ft 404 kts 257°
2026-05-04 13:02 40.26263 -0.10916 26368 ft 401 kts 247°
2026-05-04 13:02 40.25053 -0.14191 25291 ft 399 kts 237°
2026-05-04 13:02 40.23349 -0.17053 24284 ft 400 kts 226°
2026-05-04 13:03 40.21223 -0.19398 23255 ft 403 kts 216°
2026-05-04 13:03 40.18735 -0.21133 22099 ft 408 kts 205°
2026-05-04 13:03 40.16029 -0.22287 21177 ft 408 kts 201°
2026-05-04 13:03 40.13322 -0.23386 20308 ft 406 kts 201°
2026-05-04 13:04 40.10631 -0.24485 19435 ft 405 kts 201°
2026-05-04 13:04 40.07948 -0.25587 18582 ft 404 kts 201°
2026-05-04 13:04 40.05263 -0.26696 17650 ft 404 kts 201°
2026-05-04 13:04 40.02584 -0.27804 16823 ft 401 kts 201°
2026-05-04 13:05 39.99938 -0.28894 16048 ft 398 kts 201°
2026-05-04 13:05 39.97297 -0.29930 15334 ft 394 kts 199°
2026-05-04 13:05 39.94669 -0.30897 14633 ft 391 kts 199°
2026-05-04 13:05 39.92052 -0.31829 13948 ft 389 kts 198°
2026-05-04 13:06 39.89453 -0.32745 13247 ft 386 kts 198°
2026-05-04 13:06 39.86907 -0.33645 12600 ft 381 kts 198°
2026-05-04 13:06 39.84367 -0.34550 11941 ft 376 kts 198°
2026-05-04 13:06 39.81930 -0.35682 11307 ft 368 kts 211°
2026-05-04 13:07 39.80012 -0.37742 11050 ft 349 kts 231°
2026-05-04 13:07 39.78809 -0.40378 10925 ft 332 kts 249°
2026-05-04 13:07 39.78356 -0.43242 10800 ft 318 kts 266°
2026-05-04 13:07 39.78460 -0.46058 10679 ft 305 kts 270°
2026-05-04 13:08 39.78482 -0.48754 10555 ft 291 kts 266°
2026-05-04 13:08 39.78379 -0.51319 10436 ft 278 kts 263°
2026-05-04 13:08 39.78167 -0.53783 10224 ft 270 kts 259°
2026-05-04 13:08 39.77848 -0.56160 10159 ft 267 kts 256°
2026-05-04 13:09 39.77418 -0.58508 10070 ft 266 kts 253°
2026-05-04 13:09 39.76892 -0.60763 9949 ft 256 kts 250°
2026-05-04 13:09 39.76283 -0.62912 9606 ft 254 kts 247°
2026-05-04 13:09 39.75578 -0.65013 9208 ft 254 kts 244°
2026-05-04 13:10 39.74773 -0.67056 8816 ft 254 kts 241°
2026-05-04 13:10 39.73875 -0.69025 8439 ft 253 kts 237°
2026-05-04 13:10 39.72897 -0.70912 8073 ft 251 kts 235°
2026-05-04 13:10 39.71844 -0.72718 7701 ft 250 kts 232°
2026-05-04 13:11 39.70717 -0.74436 7330 ft 249 kts 229°
2026-05-04 13:11 39.69538 -0.76034 6972 ft 247 kts 226°
2026-05-04 13:11 39.68271 -0.77515 6655 ft 245 kts 217°
2026-05-04 13:11 39.66692 -0.78307 6421 ft 245 kts 190°
2026-05-04 13:12 39.64986 -0.78238 6118 ft 246 kts 179°
2026-05-04 13:12 39.63283 -0.78017 5781 ft 246 kts 173°
2026-05-04 13:12 39.61689 -0.77174 5461 ft 252 kts 148°
2026-05-04 13:12 39.60357 -0.75694 4958 ft 253 kts 141°
2026-05-04 13:13 39.59059 -0.74163 4488 ft 250 kts 138°
2026-05-04 13:13 39.58088 -0.72343 4105 ft 242 kts 118°
2026-05-04 13:13 39.57357 -0.70401 3669 ft 236 kts 118°
2026-05-04 13:13 39.56652 -0.68524 3350 ft 227 kts 117°
2026-05-04 13:14 39.55980 -0.66742 3071 ft 213 kts 117°
2026-05-04 13:14 39.55344 -0.65060 2773 ft 202 kts 117°
2026-05-04 13:14 39.54745 -0.63480 2525 ft 186 kts 117°
2026-05-04 13:14 39.54206 -0.62058 2290 ft 167 kts 117°
2026-05-04 13:15 39.53717 -0.60767 2069 ft 153 kts 117°
2026-05-04 13:15 39.53259 -0.59564 1867 ft 146 kts 117°
2026-05-04 13:15 39.52824 -0.58395 1687 ft 143 kts 116°
2026-05-04 13:15 39.52395 -0.57249 1487 ft 140 kts 117°
2026-05-04 13:16 39.51962 -0.56122 1302 ft 139 kts 117°
2026-05-04 13:16 39.51533 -0.55003 1110 ft 138 kts 117°
2026-05-04 13:16 39.51118 -0.53883 954 ft 137 kts 116°
2026-05-04 13:16 39.50701 -0.52778 776 ft 137 kts 117°
2026-05-04 13:17 39.50283 -0.51694 562 ft 133 kts 117°
2026-05-04 13:17 39.49878 -0.50633 372 ft 131 kts 117°
2026-05-04 13:17 39.49477 -0.49589 223 ft 123 kts 117°
2026-05-04 13:17 39.49146 -0.48721 214 ft 86 kts 116°
2026-05-04 13:18 39.48974 -0.48225 214 ft 36 kts 97°
2026-05-04 13:18 39.49004 -0.47994 210 ft 26 kts 78°
2026-05-04 13:18 39.49041 -0.47773 209 ft 26 kts 76°
2026-05-04 13:18 39.49042 -0.47592 217 ft 17 kts 112°
2026-05-04 13:19 39.49028 -0.47479 213 ft 6 kts 46°
2026-05-04 13:19 39.49049 -0.47458 214 ft 5 kts 39°
2026-05-04 13:19 39.49066 -0.47440 209 ft 0 kts 40°